Miscellaneous Local Product
Issued by NWS Hastings, NE

Home | Current Version | Previous Version | Graphics & Text | Print | Product List | Glossary On
Versions: 1 2 3 4 5 6 7 8 9 10 11 12 13 14 15 16 17 18 19 20 21 22 23 24 25 26 27 28 29 30 31 32 33 34 35 36 37 38 39 40 41 42 43 44 45 46 47 48 49 50
000
AXUS43 KGID 240002
MISGRI

GID CWA HOURLY WEATHER ROUNDUP
NATIONAL WEATHER SERVICE HASTINGS NE
700 PM CDT THU OCT 23 2014

NOTE: "FAIR" INDICATES FEW OR NO CLOUDS BELOW 12,000 FEET WITH NO
SIGNIFICANT WEATHER AND/OR OBSTRUCTIONS TO VISIBILITY.

...SOUTH CENTRAL NEBRASKA...

CITY           SKY/WX    TMP DP  RH WIND       PRES   REMARKS
GRAND ISLAND   CLOUDY    59  55  87 S6        30.02S
HASTINGS       CLOUDY    57  54  89 S5        30.02S FOG
KEARNEY        CLOUDY    54  52  94 SE7       30.03S
ORD            CLOUDY    62  53  72 S9        29.97R
YORK           MOCLDY    59  55  88 SW3       30.02S
AURORA         MOCLDY    59  55  87 SW3       30.02S
LEXINGTON      CLOUDY    62  56  81 SE7       30.00S
HOLDREGE       CLOUDY    56  54  91 CALM      30.02S
HEBRON         MOCLDY    62  55  76 CALM      30.03S

...NEBRASKA PANHANDLE...

CITY           SKY/WX    TMP DP  RH WIND       PRES   REMARKS
CHADRON        PTCLDY    63  38  39 W5        29.91R
ALLIANCE       PTCLDY    62  31  31 SW7       29.97R
SCOTTSBLUFF    CLEAR     63  33  32 SW7       29.99R
SIDNEY         CLEAR     59  37  44 S10       30.04R

...WESTERN AND NORTH CENTRAL NEBRASKA...

CITY           SKY/WX    TMP DP  RH WIND       PRES   REMARKS
VALENTINE      CLOUDY    62  38  40 S8        29.90F
AINSWORTH      CLOUDY    58  43  57 S7        29.92S
ONEILL         CLOUDY    62  49  61 S7        29.95S
BROKEN BOW     CLOUDY    63  51  65 S7        29.98S
IMPERIAL       CLEAR     70  37  29 S5        30.01S
NORTH PLATTE   MOCLDY    65  44  46 S6        29.98R
MCCOOK         MOCLDY    67  51  56 S7        30.01S

...EASTERN NEBRASKA...

CITY           SKY/WX    TMP DP  RH WIND       PRES   REMARKS
NORFOLK        PTCLDY    60  50  69 S5        29.99R
SO SIOUX CITY  CLEAR     59  44  57 S7        29.98S
TEKAMAH        CLEAR     60  50  69 S8        30.00R
COLUMBUS       PTCLDY    63  48  59 SW6       30.02R
ALBION         MOCLDY    58  51  76 SE5       30.00R
OMAHA EPPLEY   PTCLDY    67  48  50 S5        30.01S
OFFUTT AFB     CLEAR     56  56  99 CALM      30.01R
MILLARD        CLEAR     61  54  77 CALM      30.01S
LINCOLN        PTCLDY    64  50  60 CALM      30.02S
NEBRASKA CITY  CLEAR     65  41  42 CALM      30.02S
BEATRICE       CLEAR     65  50  58 S3        30.02R
FALLS CITY     CLEAR     67  52  58 S6        30.02R

...NORTHERN KANSAS...

CITY           SKY/WX    TMP DP  RH WIND       PRES   REMARKS
GOODLAND       PTCLDY    63  53  70 S12       30.07R
HILL CITY      MOCLDY    67  57  70 SW3       30.04R
NORTON         CLEAR     64  48  55 S7        30.02
PHILLIPSBURG   CLEAR     61  61 100 E5        30.03S FOG
SMITH CENTER   CLEAR     55  54  94 E3        30.04S FOG
BELOIT         CLEAR     61  57  88 CALM      30.02R
HAYS           MOCLDY    66  57  72 S5        30.04R
RUSSELL        MOCLDY    66  58  75 S7        30.03R
CONCORDIA      MOCLDY    66  57  72 CALM      30.02R
SALINA         MOCLDY    66  59  78 S7        30.03R
TOPEKA         CLEAR     64  62  93 E5        30.05R



USA.gov is the U.S. government's official web portal to all federal, state and local government web resources and services.